{"data":{"norad_id":58632,"epoch":"2026-05-24T21:10:36.482880Z","epoch_age_seconds":81114,"freshness":"FRESH","line1":"1 58632U 23203Q   26144.88236670  .00011748  00000+0  43564-3 0  9996","line2":"2 58632  43.0008   0.2706 0001420 273.3868  86.6822 15.27588462136404","mean_motion":15.27588462,"eccentricity":0.000142,"inclination_deg":43.0008,"raan_deg":0.2706,"arg_perigee_deg":273.3868,"mean_anomaly_deg":86.6822,"bstar":0.00043564,"rev_number":13640,"period_min":94.266226527705,"perigee_km":482.04947305681,"apogee_km":483.99804271205,"semimajor_km":6861.1607578844,"source":"CELESTRAK","updated_at":"2026-05-25T13:38:18.707880Z"}}